Valentine, NE

1:41 AM CDT on August 17, 2017 (GMT -0500)
Miller Field

Weather History for KVTN - September, 2013

Change the Weather History Date:

Saturday, September 14, 2013

  Actual Average Record
Temperature  
Mean Temperature 72 °F 63 °F  
Max Temperature 82 °F 78 °F 101 °F (2015)
Min Temperature 61 °F 48 °F 27 °F (1904)
Degree Days  
Heating Degree Days 0 5  
Month to date heating degree days 2 42  
Since 1 July heating degree days 5 67  
Cooling Degree Days 7 3  
Month to date cooling degree days 135 59  
Year to date cooling degree days 928 795  
Growing Degree Days 22 (Base 50)    
Moisture  
Dew Point 56 °F    
Average Humidity 67    
Maximum Humidity 87    
Minimum Humidity 47    
Precipitation  
Precipitation T in 0.06 in 0.78 in (1906)
Month to date precipitation 0.50 0.76  
Year to date precipitation 18.14 16.87  
Snow  
Snow 0.00 in 0.10 in 0.00 in ()
Month to date snowfall 0.0 0.1  
Since 1 July snowfall 0.0 0.1  
Since 1 September snowfall 0.0 0.1  
Snow Depth 0.00 in    
Sea Level Pressure  
Sea Level Pressure 29.86 in    
Wind  
Wind Speed 15 mph (SSW)    
Max Wind Speed 25 mph    
Max Gust Speed 33 mph    
Visibility 10 miles    
Events Rain , Thunderstorm    
T = Trace of Precipitation, MM = Missing Value Source: NWS Daily Summary

Daily Weather History Graph

Daily Weather History Graph

Search for Another Location

Airport or City:

Trip Planner

Search our weather history database for the weather conditions in past years. The results will help you decide how hot, cold, wet, or windy it might be!

Date:

Astronomy

Sep. 14, 2013 Rise Set
Actual Time 7:21 AM CDT 7:53 PM CDT
Civil Twilight 6:52 AM CDT 8:21 PM CDT
Nautical Twilight 6:19 AM CDT 8:55 PM CDT
Astronomical Twilight 5:44 AM CDT 9:29 PM CDT
Moon 4:41 PM CDT (9/14) 1:48 AM CDT (9/14)
Length of Visible Light 13h 29m
Length of Day
12h 32m
Waxing Gibbous, 72% of the Moon is Illuminated
Sep 14
Waxing Gibbous
Sep 19
Full
Sep 26
Last Quarter
Oct 4
New
Oct 11
First Quarter

Hourly Weather History & Observations

Time (CDT) Temp. Heat Index Dew Point Humidity Pressure Visibility Wind Dir Wind Speed Gust Speed Precip Events Conditions
12:33 AM 64.4 °F - 50.0 °F 59% 30.00 in 10.0 mi South 13.8 mph - N/A   Mostly Cloudy
12:52 AM 64.0 °F - 50.0 °F 60% 29.95 in 10.0 mi South 16.1 mph - N/A   Overcast
1:52 AM 64.0 °F - 50.0 °F 60% 29.94 in 10.0 mi South 16.1 mph 23.0 mph N/A   Overcast
2:52 AM 64.9 °F - 48.0 °F 54% 29.91 in 10.0 mi South 16.1 mph 25.3 mph N/A   Overcast
3:22 AM 64.4 °F - 48.2 °F 56% 29.95 in 10.0 mi South 15.0 mph 23.0 mph N/A   Overcast
3:35 AM 64.4 °F - 48.2 °F 56% 29.95 in 10.0 mi South 17.3 mph - N/A   Overcast
3:52 AM 64.0 °F - 48.9 °F 58% 29.90 in 10.0 mi South 15.0 mph - N/A   Overcast
4:48 AM 64.4 °F - 50.0 °F 59% 29.92 in 10.0 mi South 12.7 mph - N/A   Scattered Clouds
4:52 AM 64.0 °F - 50.0 °F 60% 29.87 in 10.0 mi South 12.7 mph - N/A   Scattered Clouds
5:52 AM 62.1 °F - 52.0 °F 70% 29.85 in 10.0 mi South 18.4 mph 28.8 mph 0.00 in Rain Light Rain
6:52 AM 62.1 °F - 52.0 °F 70% 29.85 in 10.0 mi SSW 12.7 mph 21.9 mph 0.00 in   Scattered Clouds
7:13 AM 62.6 °F - 53.6 °F 72% 29.90 in 10.0 mi SSW 13.8 mph - 0.00 in   Mostly Cloudy
7:52 AM 62.1 °F - 53.1 °F 72% 29.86 in 10.0 mi South 13.8 mph - 0.00 in   Overcast
8:52 AM 64.0 °F - 54.0 °F 70% 29.85 in 10.0 mi SSW 18.4 mph - N/A   Scattered Clouds
9:01 AM 64.4 °F - 53.6 °F 68% 29.88 in 10.0 mi SSW 21.9 mph 26.5 mph N/A   Mostly Cloudy
9:37 AM 66.2 °F - 55.4 °F 68% 29.88 in 10.0 mi SSW 19.6 mph 29.9 mph N/A   Overcast
9:52 AM 66.9 °F - 55.0 °F 66% 29.85 in 10.0 mi SSW 20.7 mph 27.6 mph N/A   Overcast
10:52 AM 71.1 °F - 57.0 °F 61% 29.85 in 10.0 mi SW 19.6 mph 26.5 mph N/A   Partly Cloudy
11:52 AM 73.9 °F - 59.0 °F 59% 29.83 in 10.0 mi SW 16.1 mph - N/A   Partly Cloudy
12:52 PM 75.9 °F - 59.0 °F 56% 29.80 in 10.0 mi SSW 17.3 mph 23.0 mph N/A   Clear
1:52 PM 78.1 °F - 59.0 °F 52% 29.78 in 10.0 mi SW 16.1 mph 23.0 mph N/A   Clear
2:52 PM 80.1 °F 80.7 °F 59.0 °F 48% 29.76 in 10.0 mi SSW 16.1 mph 24.2 mph N/A   Clear
3:52 PM 82.0 °F 82.4 °F 60.1 °F 47% 29.75 in 10.0 mi SSW 13.8 mph 21.9 mph N/A   Clear
4:52 PM 81.0 °F 81.6 °F 60.1 °F 49% 29.74 in 10.0 mi South 16.1 mph - N/A   Clear
5:52 PM 81.0 °F 81.6 °F 60.1 °F 49% 29.74 in 10.0 mi SSW 18.4 mph - N/A   Clear
6:52 PM 77.0 °F - 60.1 °F 56% 29.75 in 10.0 mi SSW 13.8 mph - N/A   Clear
7:52 PM 75.0 °F - 60.1 °F 60% 29.76 in 10.0 mi SW 6.9 mph - N/A   Clear
8:52 PM 72.0 °F - 61.0 °F 68% 29.80 in 10.0 mi NW 4.6 mph - N/A   Mostly Cloudy
9:34 PM 73.4 °F - 60.8 °F 65% 29.86 in 10.0 mi North 17.3 mph 27.6 mph N/A Thunderstorm Mostly Cloudy
9:52 PM 73.0 °F - 60.1 °F 64% 29.83 in 10.0 mi NNE 16.1 mph 21.9 mph N/A Thunderstorm Partly Cloudy
10:13 PM 71.6 °F - 60.8 °F 69% 29.89 in 10.0 mi North 17.3 mph - N/A   Clear
10:52 PM 66.9 °F - 60.1 °F 79% 29.86 in 10.0 mi North 18.4 mph 27.6 mph N/A   Clear
11:41 PM 64.4 °F - 60.8 °F 88% 29.95 in 10.0 mi North 10.4 mph 18.4 mph N/A   Overcast
11:52 PM 64.9 °F - 61.0 °F 87% 29.91 in 10.0 mi North 8.1 mph 17.3 mph N/A   Overcast